TimeCST,TemperatureF,Dew PointF,Humidity,Sea Level PressureIn,VisibilityMPH,Wind Direction,Wind SpeedMPH,Gust SpeedMPH,PrecipitationIn,Events,Conditions,WindDirDegrees,DateUTC
12:15 AM,35.6,17.6,48,30.30,10.0,East,4.6,-,N/A,,Clear,100,2012-02-26 06:15:00
12:35 AM,35.6,17.6,48,30.30,10.0,East,4.6,-,N/A,,Clear,100,2012-02-26 06:35:00
12:55 AM,35.6,17.6,48,30.31,10.0,SE,5.8,-,N/A,,Clear,130,2012-02-26 06:55:00
1:15 AM,35.6,17.6,48,30.31,10.0,ESE,5.8,-,N/A,,Clear,120,2012-02-26 07:15:00
1:35 AM,35.6,17.6,48,30.30,10.0,ESE,6.9,-,N/A,,Clear,110,2012-02-26 07:35:00
1:55 AM,35.6,17.6,48,30.29,10.0,East,8.1,-,N/A,,Clear,100,2012-02-26 07:55:00
2:15 AM,35.6,17.6,48,30.29,10.0,East,8.1,-,N/A,,Clear,100,2012-02-26 08:15:00
2:35 AM,35.6,17.6,48,30.31,10.0,SE,8.1,-,N/A,,Clear,130,2012-02-26 08:35:00
2:55 AM,33.8,17.6,52,30.31,10.0,SE,4.6,-,N/A,,Clear,140,2012-02-26 08:55:00
3:35 AM,33.8,17.6,52,30.30,10.0,ESE,6.9,-,N/A,,Clear,120,2012-02-26 09:35:00
3:55 AM,33.8,17.6,52,30.31,10.0,SE,4.6,-,N/A,,Clear,140,2012-02-26 09:55:00
4:15 AM,33.8,17.6,52,30.32,10.0,SSE,3.5,-,N/A,,Clear,160,2012-02-26 10:15:00
4:35 AM,33.8,17.6,52,30.32,10.0,SE,4.6,-,N/A,,Clear,130,2012-02-26 10:35:00
4:55 AM,32.0,17.6,55,30.33,10.0,SE,5.8,-,N/A,,Clear,140,2012-02-26 10:55:00
5:15 AM,33.8,17.6,52,30.33,10.0,ESE,6.9,-,N/A,,Clear,120,2012-02-26 11:15:00
6:35 AM,33.8,17.6,52,30.32,10.0,SE,6.9,-,N/A,,Clear,140,2012-02-26 12:35:00
6:55 AM,33.8,17.6,52,30.32,10.0,SE,8.1,-,N/A,,Clear,140,2012-02-26 12:55:00
7:15 AM,35.6,17.6,48,30.32,10.0,SE,6.9,-,N/A,,Clear,130,2012-02-26 13:15:00
7:55 AM,39.2,19.4,45,30.33,10.0,SSE,9.2,-,N/A,,Clear,160,2012-02-26 13:55:00
8:15 AM,39.2,19.4,45,30.33,10.0,SSE,9.2,-,N/A,,Clear,160,2012-02-26 14:15:00
8:55 AM,44.6,21.2,39,30.32,10.0,South,11.5,17.3,N/A,,Clear,170,2012-02-26 14:55:00
9:15 AM,46.4,21.2,37,30.32,10.0,South,11.5,17.3,N/A,,Clear,170,2012-02-26 15:15:00
9:35 AM,48.2,21.2,34,30.32,10.0,South,12.7,18.4,N/A,,Clear,180,2012-02-26 15:35:00
9:55 AM,51.8,23.0,33,30.32,10.0,South,10.4,18.4,N/A,,Clear,170,2012-02-26 15:55:00
10:15 AM,53.6,24.8,33,30.31,10.0,South,12.7,19.6,N/A,,Clear,180,2012-02-26 16:15:00
10:35 AM,53.6,24.8,33,30.31,10.0,South,10.4,-,N/A,,Clear,180,2012-02-26 16:35:00
10:55 AM,57.2,24.8,29,30.31,10.0,South,10.4,16.1,N/A,,Clear,170,2012-02-26 16:55:00
11:15 AM,57.2,24.8,29,30.30,10.0,South,8.1,-,N/A,,Clear,180,2012-02-26 17:15:00
11:35 AM,60.8,26.6,27,30.29,10.0,SSW,10.4,-,N/A,,Clear,210,2012-02-26 17:35:00
11:55 AM,60.8,24.8,25,30.28,10.0,South,8.1,-,N/A,,Clear,180,2012-02-26 17:55:00
12:15 PM,60.8,24.8,25,30.27,10.0,South,12.7,17.3,N/A,,Clear,170,2012-02-26 18:15:00
12:35 PM,60.8,26.6,27,30.25,10.0,South,4.6,-,N/A,,Clear,190,2012-02-26 18:35:00
12:55 PM,60.8,26.6,27,30.25,10.0,South,11.5,17.3,N/A,,Clear,170,2012-02-26 18:55:00
1:15 PM,62.6,24.8,24,30.23,10.0,South,12.7,17.3,N/A,,Clear,170,2012-02-26 19:15:00
1:35 PM,62.6,24.8,24,30.22,10.0,SSW,10.4,16.1,N/A,,Clear,200,2012-02-26 19:35:00
1:55 PM,62.6,24.8,24,30.21,10.0,South,6.9,-,N/A,,Clear,180,2012-02-26 19:55:00
2:15 PM,62.6,26.6,26,30.20,10.0,South,9.2,18.4,N/A,,Clear,180,2012-02-26 20:15:00
2:35 PM,62.6,26.6,26,30.19,10.0,South,10.4,19.6,N/A,,Clear,190,2012-02-26 20:35:00
2:55 PM,64.4,26.6,24,30.18,10.0,SSE,10.4,17.3,N/A,,Clear,160,2012-02-26 20:55:00
3:15 PM,62.6,26.6,26,30.17,10.0,South,11.5,-,N/A,,Clear,170,2012-02-26 21:15:00
3:35 PM,64.4,26.6,24,30.16,10.0,SSW,10.4,18.4,N/A,,Clear,200,2012-02-26 21:35:00
3:55 PM,64.4,26.6,24,30.16,10.0,SSE,10.4,-,N/A,,Clear,160,2012-02-26 21:55:00
4:15 PM,64.4,26.6,24,30.16,10.0,South,8.1,16.1,N/A,,Clear,170,2012-02-26 22:15:00
4:35 PM,62.6,26.6,26,30.16,10.0,SSW,9.2,19.6,N/A,,Clear,210,2012-02-26 22:35:00
4:55 PM,62.6,26.6,26,30.16,10.0,SSW,9.2,-,N/A,,Clear,200,2012-02-26 22:55:00
5:15 PM,62.6,26.6,26,30.16,10.0,SSW,5.8,-,N/A,,Clear,200,2012-02-26 23:15:00
5:35 PM,60.8,24.8,25,30.16,10.0,SSW,6.9,-,N/A,,Clear,200,2012-02-26 23:35:00
5:55 PM,59.0,24.8,27,30.16,10.0,South,4.6,-,N/A,,Clear,180,2012-02-26 23:55:00
6:15 PM,57.2,24.8,29,30.17,10.0,Calm,Calm,-,N/A,,Clear,0,2012-02-27 00:15:00
6:35 PM,55.4,24.8,31,30.17,10.0,SSE,4.6,-,N/A,,Clear,150,2012-02-27 00:35:00
6:55 PM,55.4,26.6,33,30.18,10.0,South,3.5,-,N/A,,Clear,170,2012-02-27 00:55:00
7:15 PM,51.8,26.6,38,30.19,10.0,Calm,Calm,-,N/A,,Clear,0,2012-02-27 01:15:00
7:35 PM,53.6,26.6,35,30.20,10.0,SSW,3.5,-,N/A,,Clear,210,2012-02-27 01:35:00
7:55 PM,51.8,26.6,38,30.21,10.0,South,4.6,-,N/A,,Clear,170,2012-02-27 01:55:00
8:15 PM,53.6,26.6,35,30.21,10.0,SSE,4.6,-,N/A,,Clear,160,2012-02-27 02:15:00
8:35 PM,51.8,26.6,38,30.21,10.0,SSE,3.5,-,N/A,,Clear,160,2012-02-27 02:35:00
8:55 PM,53.6,26.6,35,30.22,10.0,South,5.8,-,N/A,,Clear,170,2012-02-27 02:55:00
9:15 PM,53.6,26.6,35,30.23,10.0,South,5.8,-,N/A,,Clear,170,2012-02-27 03:15:00
9:35 PM,53.6,26.6,35,30.23,10.0,South,5.8,-,N/A,,Clear,170,2012-02-27 03:35:00
9:55 PM,51.8,26.6,38,30.22,10.0,SSE,5.8,-,N/A,,Clear,150,2012-02-27 03:55:00
10:15 PM,51.8,26.6,38,30.23,10.0,South,5.8,-,N/A,,Clear,170,2012-02-27 04:15:00
10:35 PM,51.8,26.6,38,30.24,10.0,SSE,4.6,-,N/A,,Clear,160,2012-02-27 04:35:00
10:55 PM,51.8,26.6,38,30.24,10.0,South,5.8,-,N/A,,Clear,170,2012-02-27 04:55:00
11:15 PM,51.8,26.6,38,30.24,10.0,South,6.9,-,N/A,,Clear,170,2012-02-27 05:15:00
11:35 PM,51.8,26.6,38,30.24,10.0,South,5.8,-,N/A,,Clear,170,2012-02-27 05:35:00
11:55 PM,50.0,28.4,43,30.24,10.0,South,4.6,-,N/A,,Clear,170,2012-02-27 05:55:00